Theta_e
286 285 284 283 284 285 284 284 284 284 284 284 285 286 287 286 286 286 286 286 288 288 287 287 287 287 287 287 286 284 284 284 284 284 284 283 283 283 282 282 282 281 281 281 280 280 280 280 279 279 279 279 278 278 277 277 277 277 276 276 277 276
285 285 284 284 284 284 284 284 283 284 284 284 284 284 284 284 285 286 286 286 287 287 287 287 287 287 287 286 285 284 284 284 284 283 283 283 283 282 282 282 282 281 281 280 280 279 279 279 279 279 278 278 278 277 277 276 277 276 276 275 276 276
286 285 284 283 283 283 283 284 285 285 284 285 285 285 285 285 286 285 286 286 286 286 286 287 286 286 286 286 285 285 284 284 284 283 283 282 282 282 282 282 281 281 281 280 280 279 279 279 278 278 278 278 277 276 276 276 276 276 275 275 275 275
288 287 285 284 284 284 284 285 285 284 285 286 286 285 286 286 286 286 287 287 287 286 286 286 286 286 286 285 285 284 284 283 283 283 282 282 282 282 282 281 281 281 281 280 279 279 279 279 278 278 278 277 276 276 276 276 276 275 274 274 274 274
287 287 287 287 287 286 286 285 285 286 286 286 286 286 286 287 287 287 287 286 286 286 286 286 285 285 285 284 284 284 284 283 283 282 282 282 281 281 282 281 281 281 280 280 279 279 279 278 278 278 277 277 276 276 276 276 276 275 274 274 274 274
290 289 290 288 287 287 287 286 286 286 286 286 285 285 286 286 286 286 286 286 286 286 285 285 285 284 284 284 285 284 284 284 282 282 282 281 281 280 281 281 281 280 280 279 279 279 278 278 278 277 277 277 277 276 276 276 276 275 275 274 274 273
290 291 291 290 289 288 288 287 287 286 285 285 285 286 286 286 286 286 286 286 286 285 285 285 285 284 284 284 285 284 284 283 282 281 281 281 281 281 280 280 280 280 280 279 279 278 278 278 277 277 277 277 277 277 276 276 275 275 274 274 274 275
288 288 289 289 289 289 289 288 287 286 285 284 285 285 285 286 286 286 286 286 286 286 285 285 285 284 284 284 284 284 284 284 282 281 281 281 281 280 280 280 280 280 279 279 279 278 278 278 277 277 277 277 276 276 276 275 275 275 274 273 273 273
287 288 288 289 289 288 288 288 287 286 285 285 285 285 285 285 285 286 286 286 286 286 285 285 285 285 285 285 285 285 284 283 282 281 281 281 281 280 280 280 280 280 280 279 279 278 278 277 277 277 276 276 276 275 275 274 274 274 273 273 273 272
287 287 287 287 288 288 289 288 288 287 287 287 287 285 285 286 284 285 285 285 285 285 286 285 285 285 285 285 284 284 283 283 282 281 281 280 280 280 280 279 279 279 279 279 279 278 278 277 277 276 276 276 275 275 274 274 273 273 272 272 272 271
286 286 287 287 288 288 288 289 290 290 290 290 290 289 287 285 283 284 284 285 285 286 286 286 285 285 285 284 283 283 283 282 282 281 280 280 280 280 280 279 279 278 278 278 278 277 277 277 276 276 276 275 275 275 274 273 273 272 272 271 271 271
286 286 286 287 287 287 288 288 289 290 290 290 291 290 289 283 284 284 284 284 285 286 286 285 285 284 284 283 283 283 282 282 281 280 279 279 279 279 279 278 278 278 278 277 277 277 277 277 277 278 280 279 275 274 274 273 272 272 271 271 271 270
285 285 286 286 286 287 287 288 288 289 289 290 290 290 290 285 285 284 284 284 285 285 285 284 284 283 283 283 283 282 281 281 279 279 279 278 278 278 278 278 278 277 278 277 277 276 276 276 277 280 282 282 280 275 273 272 272 271 272 271 271 270
285 285 285 285 286 286 287 287 287 288 288 289 289 289 290 287 285 284 284 285 285 284 284 284 283 282 283 282 282 281 281 280 278 278 278 277 277 277 277 277 277 277 277 277 277 276 276 276 279 282 283 283 282 278 273 273 272 271 271 271 271 270
284 284 285 285 286 286 286 286 286 287 287 287 287 288 288 287 285 284 284 284 284 284 283 282 282 282 281 281 281 280 279 279 278 278 277 277 278 277 277 277 277 277 277 277 276 276 276 276 280 282 283 283 282 280 276 273 272 272 271 271 271 270
285 285 285 285 285 285 286 286 286 286 286 286 286 287 287 286 285 283 283 284 283 283 282 282 282 282 282 281 280 279 279 278 278 279 278 278 277 277 277 277 277 277 276 276 276 276 276 276 280 283 283 283 283 281 277 272 272 272 271 271 271 271
285 285 285 285 285 286 286 286 286 285 285 285 285 286 285 285 283 283 283 282 282 282 282 282 282 282 281 280 279 278 278 278 278 278 278 278 277 277 277 276 276 276 276 276 276 276 275 275 280 283 284 284 283 282 277 272 272 271 271 271 272 272
284 284 285 285 286 286 286 285 285 283 283 284 285 284 284 283 283 283 282 281 281 280 281 281 281 281 280 279 278 278 278 278 278 278 278 277 277 277 277 277 277 276 276 276 276 275 275 275 281 283 284 284 284 282 273 271 271 271 271 271 272 273
286 285 285 286 286 286 286 286 285 283 283 284 284 283 283 282 282 283 282 281 281 280 280 280 280 280 279 278 278 277 278 278 277 278 278 277 277 276 276 276 276 276 276 275 274 274 274 274 279 283 284 284 284 281 271 271 271 271 271 272 273 273
286 286 286 286 286 286 286 286 285 283 283 283 283 282 282 283 283 282 280 280 281 280 280 280 280 280 279 278 278 278 278 277 277 277 277 276 276 275 276 276 275 275 275 275 274 274 273 273 278 283 284 284 284 278 271 271 272 272 272 272 273 273
285 285 285 285 284 285 286 286 285 284 283 283 283 282 283 284 283 281 279 280 279 278 278 278 278 279 279 278 278 278 277 277 277 277 276 276 276 275 275 275 274 273 273 274 274 276 274 273 277 283 284 284 284 278 273 272 272 272 272 272 272 272
284 283 283 283 283 284 285 285 285 284 284 284 284 284 284 284 282 279 278 278 278 277 277 278 279 279 279 278 277 277 277 276 275 274 275 274 275 274 274 274 273 273 273 273 273 274 274 272 274 280 284 284 284 280 274 273 273 272 272 272 271 270
282 281 281 282 282 283 284 284 284 283 283 284 284 284 285 284 282 279 278 278 277 276 276 276 278 278 277 276 275 274 274 274 274 273 273 273 272 272 271 272 272 272 272 272 273 273 273 272 273 277 283 284 285 282 278 273 273 272 272 271 271 270
279 279 279 280 280 281 282 282 281 281 282 282 283 284 286 284 282 280 279 279 278 277 276 276 277 278 276 273 275 275 274 273 274 273 273 272 271 271 270 271 270 270 270 271 272 272 272 273 275 276 282 284 285 283 280 274 273 273 272 271 270 270
277 277 277 277 278 279 280 280 278 279 280 280 282 285 285 285 283 281 280 279 278 277 276 276 277 277 275 275 276 276 274 273 273 273 273 272 270 270 269 270 270 270 269 269 270 271 271 271 274 278 279 283 284 284 281 278 276 277 273 271 270 270
275 275 275 275 276 277 278 277 276 277 277 279 282 284 285 285 285 282 280 279 279 277 276 276 276 276 276 275 275 275 274 272 272 272 272 271 270 269 269 269 269 269 269 268 268 269 269 270 272 277 280 281 284 284 281 280 279 278 273 272 271 272
273 273 273 274 275 275 275 276 275 275 275 278 281 283 284 283 283 282 281 280 280 278 277 276 276 276 275 275 276 275 273 272 272 271 271 271 270 270 269 268 269 269 269 267 267 267 268 269 271 273 278 281 283 284 282 280 279 279 277 273 272 273
271 271 271 272 273 273 273 273 274 273 274 276 279 281 280 278 278 278 279 280 280 279 278 276 276 276 275 275 276 275 274 273 272 272 271 271 271 270 270 269 269 269 269 267 267 267 267 269 270 272 275 279 281 282 281 280 279 279 277 275 274 275
269 269 269 269 270 271 271 272 272 273 274 275 277 277 276 274 274 275 276 278 280 280 278 276 276 275 275 275 275 275 274 273 273 272 271 271 271 271 270 270 269 269 269 267 267 267 267 268 269 271 273 276 278 279 279 278 277 278 277 274 274 275
266 266 267 267 268 269 269 270 270 272 274 274 274 272 271 271 272 273 274 275 278 279 278 276 275 274 275 274 274 274 274 273 273 272 272 271 271 271 270 270 269 269 269 267 267 267 267 267 268 270 272 274 276 277 278 276 276 276 274 272 273 272
265 265 265 266 267 267 267 268 270 271 270 269 269 269 268 269 271 272 272 274 275 277 277 276 276 275 275 274 273 274 274 273 272 273 273 274 273 273 272 271 271 271 271 269 268 267 266 267 268 269 274 274 278 277 276 275 275 274 272 273 272 267
265 264 264 264 265 265 265 266 266 266 266 267 267 267 267 268 269 270 271 273 274 276 277 275 275 275 274 274 273 273 273 274 276 275 273 273 275 276 276 276 272 272 272 270 270 270 268 267 269 274 277 278 279 280 279 278 278 275 272 274 274 269
264 263 263 263 263 263 263 263 263 263 264 265 265 265 265 266 267 269 270 272 273 275 276 276 275 274 274 274 273 273 272 271 273 277 277 276 275 276 277 277 277 276 276 272 270 272 274 273 274 276 277 279 279 280 280 279 277 276 276 276 270 266
262 261 261 262 262 261 261 261 261 262 262 263 264 265 266 266 267 267 268 271 273 275 275 276 276 274 273 273 273 272 272 271 270 271 276 278 277 277 277 278 278 277 277 277 274 272 272 274 276 277 278 279 280 280 279 278 278 278 278 276 273 264
261 261 260 260 260 259 260 259 260 261 261 262 263 264 264 265 266 266 268 270 272 274 275 276 275 274 273 272 271 271 271 271 270 269 269 273 277 277 277 278 278 278 277 278 277 276 274 275 276 278 278 279 279 279 279 279 279 278 278 276 267 263
260 259 259 258 258 258 258 259 259 260 260 261 262 263 264 266 267 268 269 271 272 274 275 276 276 274 273 273 272 271 271 271 271 270 270 269 270 272 275 277 278 278 278 278 278 277 276 277 278 278 279 279 279 279 279 278 276 278 278 272 264 263
258 258 258 259 259 258 258 258 259 260 261 262 263 265 265 264 264 264 267 270 272 274 275 276 276 275 274 273 272 271 270 270 270 270 270 269 269 269 270 271 273 277 278 276 276 277 277 278 278 279 279 279 279 279 279 278 274 273 270 266 263 262
257 257 258 258 257 257 257 258 259 261 263 264 263 262 261 262 263 265 267 270 273 275 276 277 276 275 274 272 272 271 271 270 270 269 270 270 270 270 270 270 272 273 277 278 277 277 278 278 279 279 279 279 279 279 279 272 270 267 264 262 261 260
Wind_Speed
5 4 4 3 4 6 7 5 5 5 6 5 6 10 11 8 7 8 8 10 11 12 14 15 13 12 13 12 11 10 13 14 13 13 12 8 10 11 11 12 12 12 12 11 11 10 11 10 10 9 9 9 8 8 8 7 8 8 8 7 7 7
5 1 2 4 5 5 5 6 6 8 7 6 7 6 6 6 8 10 12 14 12 12 11 12 14 14 14 13 12 12 14 14 12 12 10 13 10 10 12 12 13 14 13 12 12 11 11 11 10 10 10 9 8 8 8 8 9 9 9 8 6 6
5 4 1 3 4 4 5 5 8 7 7 10 11 13 12 11 13 11 14 12 14 15 16 17 15 16 13 11 12 13 13 11 12 12 12 8 12 12 13 13 14 14 14 13 13 13 13 12 12 10 10 10 9 8 8 8 9 10 8 8 8 6
7 6 3 1 4 6 7 8 6 8 11 14 12 11 12 15 14 16 17 14 13 14 16 15 12 12 10 12 12 13 12 11 12 11 10 13 12 13 14 14 13 13 14 14 13 13 13 13 13 12 11 12 11 10 8 9 10 10 9 9 9 8
5 5 5 5 6 7 6 7 9 12 13 12 11 13 16 15 15 13 10 9 12 14 14 12 11 10 11 13 12 14 14 13 11 10 13 13 12 12 13 14 14 14 14 13 13 13 13 13 13 12 12 12 13 13 11 11 11 12 12 12 11 10
9 8 9 8 7 8 10 9 9 9 9 10 9 13 17 12 11 10 10 12 13 14 12 13 13 12 14 14 14 16 15 13 11 11 13 13 11 13 12 13 14 14 14 15 14 15 14 14 13 13 13 14 14 13 13 12 12 11 11 12 11 11
11 11 10 10 9 7 7 8 9 9 10 8 11 14 13 9 9 9 12 13 15 14 14 15 14 14 15 16 15 18 16 14 13 12 14 13 14 14 13 12 13 14 15 16 17 16 15 15 14 14 14 13 12 13 12 13 12 12 11 11 11 11
12 13 13 13 12 11 9 7 7 8 8 9 9 10 10 10 8 9 11 12 14 15 16 16 14 16 17 18 17 18 16 15 14 13 12 14 15 14 14 15 14 15 17 16 16 16 16 15 15 16 15 15 13 12 12 11 12 11 11 10 10 11
16 14 14 14 13 13 12 11 10 8 8 10 9 9 9 9 8 10 12 13 14 15 15 15 16 17 17 18 17 14 12 13 13 13 13 13 14 14 14 14 16 14 16 16 15 16 16 16 15 14 13 13 13 13 13 12 11 11 10 10 10 9
14 15 15 15 15 14 14 12 11 11 10 12 10 8 8 8 8 10 12 13 14 15 16 15 15 15 16 14 11 11 12 11 11 13 12 11 13 15 16 16 16 14 13 14 15 15 14 15 14 14 14 13 14 13 13 13 12 12 10 9 9 8
12 14 15 15 16 18 17 16 16 16 15 14 14 12 10 7 6 10 12 12 14 16 15 13 12 13 12 10 10 12 13 13 14 12 12 13 13 12 13 12 13 13 13 12 13 14 13 15 15 14 15 15 14 13 14 14 13 12 12 10 9 8
13 13 14 16 17 18 19 18 18 18 18 18 18 17 15 5 9 11 11 12 14 14 12 12 11 10 9 10 13 14 13 12 12 12 13 13 13 12 11 12 13 14 15 15 14 13 13 14 12 15 24 20 16 15 12 11 12 12 11 11 9 7
13 13 14 15 15 15 14 14 15 15 16 17 17 17 15 8 11 11 11 14 14 13 10 9 11 9 11 13 11 10 11 12 11 12 12 11 12 13 13 13 15 15 14 16 16 17 14 13 11 21 25 25 23 16 13 14 12 11 11 8 8 9
14 14 14 14 13 14 13 14 14 13 15 15 16 17 16 12 10 11 13 14 13 10 11 11 10 10 12 10 13 12 11 10 11 12 12 12 13 13 12 14 15 14 14 14 14 16 15 14 16 25 25 25 25 19 13 11 11 11 11 8 8 8
12 12 12 12 12 13 13 12 13 14 14 15 15 15 15 14 12 12 13 13 11 11 10 8 10 11 11 12 12 10 10 12 13 13 13 16 14 11 13 16 15 15 14 15 16 16 14 13 19 25 26 25 25 24 16 10 11 12 11 9 10 10
12 11 11 10 11 10 10 9 10 13 13 13 13 13 14 14 13 10 12 11 9 9 8 8 9 11 11 9 9 10 11 13 15 14 12 11 11 14 14 14 16 15 16 16 16 15 13 13 18 24 25 25 25 25 18 10 12 11 11 10 10 9
12 12 12 11 12 12 13 14 13 14 15 14 14 13 13 13 12 11 9 9 8 6 7 7 8 10 8 7 9 10 12 13 11 12 13 13 15 16 16 16 16 15 14 12 11 11 12 11 21 25 26 25 26 25 17 10 10 9 10 8 9 11
13 12 12 11 11 12 10 11 11 13 16 14 12 13 12 11 12 12 11 10 8 6 5 5 7 6 5 7 8 10 12 12 13 14 12 11 10 9 9 9 10 13 13 13 13 13 12 10 22 24 25 26 25 25 12 11 11 11 10 10 11 10
11 11 9 11 12 13 12 12 11 12 13 13 12 11 12 11 12 12 10 9 8 6 4 4 5 5 5 6 8 11 11 11 10 9 7 10 10 10 11 11 11 10 11 12 11 12 10 9 18 24 24 26 27 20 11 12 10 10 11 11 11 10
11 11 11 12 13 12 12 13 12 12 13 13 13 13 13 11 12 11 9 9 8 7 5 5 5 6 6 7 10 10 8 7 6 8 8 11 11 11 11 10 9 9 10 12 12 12 11 11 17 24 25 25 29 18 14 12 12 11 11 10 10 8
12 12 13 13 14 15 15 16 14 13 13 13 13 12 13 13 13 12 11 10 8 7 5 5 5 5 6 8 8 7 8 8 8 7 7 8 8 9 8 9 10 9 9 11 13 14 14 12 15 25 26 28 29 19 12 12 11 12 11 11 10 8
13 13 14 15 15 15 16 15 15 15 14 14 12 13 14 13 13 11 9 8 8 7 5 4 5 6 6 7 6 5 6 5 5 7 8 7 7 8 8 9 9 11 10 11 12 13 13 12 12 17 27 27 28 23 13 11 12 13 13 11 11 10
11 13 14 14 15 16 14 14 15 16 16 15 13 14 15 13 12 10 9 8 7 6 5 4 4 6 5 4 5 4 4 5 6 6 7 8 6 6 7 9 8 9 9 9 9 11 12 13 15 17 28 29 29 26 21 11 12 11 12 12 11 10
14 15 15 13 14 14 13 14 17 16 16 15 16 15 14 13 12 11 9 9 8 7 5 4 4 3 3 4 5 5 5 4 5 6 7 6 7 9 9 8 7 8 8 7 9 9 10 11 17 14 25 30 31 28 26 13 11 11 12 12 10 10
15 16 16 15 13 12 12 14 17 17 16 16 17 15 15 14 12 11 10 9 9 8 6 4 4 4 3 4 5 7 6 5 6 6 7 8 7 8 9 9 9 8 8 7 8 8 8 10 11 18 16 27 30 29 25 21 13 20 11 11 12 11
14 16 17 16 13 12 12 13 16 18 18 18 15 15 15 14 13 12 12 11 9 8 7 5 4 4 4 5 6 6 7 7 7 7 7 7 8 9 9 8 8 9 9 11 10 8 7 5 9 14 17 20 30 28 26 25 23 22 11 9 9 9
16 18 18 16 15 13 13 12 14 19 22 18 15 15 14 15 16 15 14 13 11 9 7 5 5 5 5 6 7 8 7 8 8 9 7 8 8 9 10 9 10 11 10 11 9 6 5 7 10 9 15 21 24 29 26 25 24 22 20 11 7 9
14 16 19 21 17 13 13 14 14 18 20 18 16 14 15 17 18 18 18 15 12 11 8 7 6 6 6 7 7 8 8 10 10 10 9 10 10 10 10 10 10 10 10 12 8 7 7 7 7 10 10 15 19 21 25 25 25 23 22 15 11 15
15 17 18 20 21 15 12 16 13 14 16 17 14 13 15 18 19 19 18 16 14 11 8 9 7 6 7 7 7 7 7 8 9 9 10 11 11 11 10 10 11 11 11 14 9 7 8 8 9 12 11 11 13 13 16 19 18 23 21 13 12 15
13 15 18 19 18 15 14 15 15 16 14 15 15 17 19 20 19 16 17 17 16 13 9 9 10 10 7 8 9 9 9 9 10 11 13 14 15 14 13 12 12 14 12 9 8 8 6 8 12 13 14 14 13 13 13 13 13 14 12 12 10 9
15 16 17 19 18 15 16 18 15 16 15 17 18 19 18 19 20 18 19 16 15 15 11 9 9 9 9 9 9 10 10 12 13 13 11 10 8 11 13 13 13 12 10 12 13 12 9 8 13 17 13 13 16 14 13 14 14 11 12 15 18 12
14 16 18 18 17 16 15 15 15 16 15 14 14 16 18 19 18 18 16 10 13 11 12 8 9 9 9 9 9 9 9 10 13 10 10 9 12 16 13 10 9 8 9 10 11 14 17 20 17 19 27 27 27 27 24 21 20 20 17 22 28 15
14 14 18 19 16 13 15 17 20 18 14 12 15 15 16 18 17 15 14 12 11 13 12 10 10 9 9 9 9 8 9 8 9 17 19 13 11 14 18 18 16 15 17 12 10 11 14 10 16 25 26 29 29 28 27 24 24 26 27 27 17 11
16 16 17 17 15 16 15 19 19 20 15 11 13 14 13 15 15 16 15 13 12 13 13 11 11 9 9 9 8 9 9 9 8 8 16 21 18 18 21 21 21 20 21 22 16 12 10 17 23 27 29 29 31 30 27 27 28 28 28 27 20 11
14 14 14 14 15 17 18 18 22 18 13 13 13 13 17 17 16 18 17 16 13 13 12 12 11 10 9 9 9 9 9 10 10 10 8 11 18 19 19 21 21 21 21 24 24 23 18 20 24 29 30 31 31 29 28 29 29 28 27 26 13 9
15 15 16 14 17 17 20 20 21 15 12 15 15 16 16 17 15 16 16 15 13 13 13 12 10 10 9 9 9 10 10 11 11 10 10 8 7 9 14 19 23 22 23 24 26 26 25 25 28 30 31 32 31 29 29 27 21 25 27 18 11 10
15 17 17 19 20 20 19 22 22 15 15 16 15 13 13 17 19 18 22 31 24 15 14 13 11 10 9 9 9 10 10 10 9 9 10 10 11 10 11 9 12 18 23 18 19 25 27 28 31 32 31 33 31 30 30 27 16 16 12 9 7 8
18 18 17 16 16 16 20 20 17 13 13 9 11 16 18 16 17 17 16 16 18 14 12 12 11 10 9 10 10 9 10 9 9 10 10 10 9 9 9 8 9 9 16 26 22 25 26 29 31 31 32 31 33 31 31 17 12 11 10 10 8 8
Wind_Direction
303 291 279 283 255 219 203 205 208 221 224 235 228 219 221 219 212 208 209 207 212 211 211 209 213 214 212 207 195 184 192 196 196 194 196 173 176 177 173 177 179 182 185 183 182 179 182 178 180 175 175 177 175 176 172 163 163 162 167 169 163 166
264 259 270 262 248 260 244 196 184 207 210 213 224 232 225 215 214 211 214 212 211 216 213 215 212 211 211 208 198 197 201 201 194 192 185 191 174 179 176 178 182 182 182 184 181 180 180 179 178 176 175 176 181 174 172 171 166 166 169 167 166 161
346 16 17 250 259 226 231 235 211 205 203 214 209 210 206 209 212 206 220 212 217 214 211 213 209 212 208 206 207 208 207 200 195 194 192 161 184 178 180 182 184 181 182 181 183 182 182 179 177 178 174 179 178 178 173 168 171 167 168 161 167 170
326 354 349 291 248 247 228 217 209 211 212 216 213 211 213 211 210 208 216 211 219 216 221 219 216 214 203 206 206 210 209 205 200 191 173 187 186 179 183 183 181 182 180 181 184 184 184 183 180 176 176 179 176 176 174 175 173 170 168 166 174 175
309 307 296 275 254 255 246 230 221 221 220 218 214 212 224 216 218 217 217 214 219 222 223 219 214 206 207 210 209 210 208 206 199 184 188 188 182 184 183 183 180 178 179 181 183 184 185 185 181 179 178 181 179 178 179 180 177 175 173 177 181 177
326 313 303 290 265 250 242 237 236 237 235 228 225 225 230 220 221 213 212 218 223 224 219 217 215 205 207 207 211 211 209 202 197 189 191 186 179 183 186 181 179 176 179 182 183 186 185 183 184 181 183 182 180 180 181 179 182 182 182 180 176 175
317 312 305 294 285 271 258 253 244 236 237 229 226 234 239 231 226 217 219 218 224 222 216 218 210 210 209 210 210 211 206 200 196 190 190 183 186 185 178 181 177 178 180 185 186 184 183 185 182 181 184 184 183 182 180 181 182 183 183 182 180 179
328 330 327 325 322 316 311 302 292 288 276 252 238 242 242 232 228 226 226 224 225 225 219 218 210 213 212 213 213 211 203 199 194 191 192 188 187 183 184 179 180 184 186 186 184 183 183 182 184 185 184 182 180 181 182 181 182 182 181 181 183 182
354 350 346 342 339 335 329 318 302 280 264 266 253 244 243 238 225 227 228 228 226 229 224 219 214 213 215 215 214 209 202 200 194 188 193 191 190 183 183 186 184 187 185 187 182 184 183 182 182 183 184 183 181 179 178 178 180 180 180 185 183 179
360 358 353 352 348 342 340 330 313 298 289 280 274 248 243 241 222 227 228 229 230 231 229 222 219 218 219 219 212 203 201 195 191 192 189 184 190 190 189 186 187 186 185 185 184 185 180 179 181 182 182 183 182 180 180 178 177 177 178 177 177 174
354 352 353 349 349 350 346 344 341 337 328 316 307 302 276 260 236 238 234 233 233 234 229 224 221 221 221 210 202 202 198 195 193 188 185 188 192 189 189 185 180 178 185 187 186 183 182 183 185 183 180 179 183 183 179 177 176 175 174 172 173 174
349 349 348 350 349 346 345 345 344 341 335 327 318 311 301 282 250 246 244 237 238 237 231 226 223 219 211 203 205 204 198 194 188 185 188 189 187 184 180 180 183 184 185 182 184 185 186 191 189 185 181 180 178 178 177 173 175 174 172 169 165 161
343 345 346 344 345 341 339 337 335 334 332 329 323 313 305 286 261 256 248 246 242 239 232 225 222 209 207 209 205 200 194 190 186 186 185 183 183 183 181 181 186 189 186 186 185 186 190 191 189 184 184 183 179 173 173 173 172 173 171 164 150 160
340 338 337 335 334 336 337 335 330 329 327 324 321 317 312 298 270 260 251 245 248 240 230 223 215 206 212 201 203 196 190 181 179 184 184 182 183 186 182 187 191 187 188 188 188 190 191 190 186 185 185 182 178 174 170 170 169 169 172 154 157 159
330 325 323 328 329 331 328 326 325 326 324 321 316 318 318 308 282 266 261 257 249 243 232 222 212 212 206 204 198 188 181 181 183 185 183 189 188 174 184 192 185 192 189 187 190 193 191 192 185 186 184 180 178 174 168 172 167 167 170 157 164 165
323 322 319 316 317 316 313 317 320 318 316 313 317 323 323 319 303 277 270 270 261 249 233 220 214 213 212 200 189 183 185 186 192 190 186 178 175 187 190 188 191 189 190 191 190 190 189 189 185 184 183 181 177 173 168 167 164 166 167 162 164 162
318 319 323 324 324 323 327 330 335 328 324 326 325 327 328 324 315 301 285 280 274 258 240 226 220 222 210 193 188 187 193 194 190 184 187 185 188 188 190 188 190 192 190 188 186 185 187 187 184 185 184 180 176 173 160 160 161 162 165 158 161 169
318 316 317 318 320 320 324 324 328 328 321 321 324 326 328 325 321 316 314 304 297 280 259 240 236 229 210 194 191 195 199 197 193 191 187 186 190 191 185 192 190 188 187 187 185 186 187 180 184 184 183 179 175 169 151 161 163 163 165 166 170 170
313 313 310 318 321 322 325 326 326 322 319 321 323 326 325 329 329 326 316 306 302 292 279 259 241 232 212 199 199 205 203 198 200 195 182 185 189 186 189 191 187 186 183 183 184 182 178 171 185 186 184 183 180 171 152 162 163 165 166 170 169 170
317 319 323 323 324 323 323 326 324 323 323 324 326 330 327 332 333 327 316 308 305 297 281 259 244 232 213 204 211 208 204 200 195 193 183 188 186 188 190 179 177 180 181 181 183 182 174 174 184 185 185 183 186 168 161 166 167 165 166 164 166 164
322 324 326 327 327 330 330 326 326 325 325 325 327 325 324 330 331 329 320 310 300 286 265 244 232 227 214 213 215 203 200 194 192 186 180 189 185 187 176 176 177 176 177 181 179 175 175 176 184 188 188 187 188 170 166 167 167 164 166 164 162 162
327 328 331 329 328 331 331 329 327 326 324 325 325 325 324 325 325 313 302 298 293 283 265 243 232 225 216 216 205 193 196 174 166 175 180 185 182 179 177 179 179 178 182 176 177 181 175 170 182 191 191 190 187 171 167 171 168 171 165 165 164 159
330 326 325 328 328 331 331 329 326 324 324 323 325 323 320 319 316 312 307 302 300 291 273 255 236 228 220 198 189 176 167 172 176 167 173 175 172 166 172 178 177 176 178 179 181 180 181 177 179 190 192 191 190 173 171 177 180 170 166 168 165 169
324 322 323 325 328 325 328 330 326 321 322 321 320 321 317 318 316 312 311 310 305 300 287 270 257 231 199 162 152 162 178 175 164 172 173 172 169 173 176 175 175 175 175 177 178 183 179 179 183 186 194 191 193 182 175 171 182 171 163 165 166 169
323 322 319 320 323 325 325 329 322 318 318 316 316 318 319 317 315 313 310 306 303 296 285 265 244 217 171 171 171 168 171 159 161 169 173 172 171 175 175 177 176 173 173 176 184 182 174 179 187 194 195 194 194 186 176 173 171 176 172 167 168 172
318 317 315 316 318 322 325 327 321 315 313 310 316 317 315 319 322 322 314 307 298 291 276 252 231 209 182 176 172 174 167 168 166 169 179 176 176 179 180 185 179 178 181 172 163 161 167 168 175 197 200 196 195 188 176 175 176 178 169 169 164 161
317 314 310 309 315 319 322 323 317 312 308 309 319 315 324 329 329 326 318 310 301 285 271 249 233 211 191 184 176 178 177 174 171 176 183 179 189 188 190 190 185 189 187 170 169 150 152 170 185 191 201 200 196 190 177 174 173 177 172 167 161 158
312 309 308 309 310 317 319 316 315 308 303 309 312 318 330 326 323 319 314 310 300 285 269 255 241 221 208 194 191 193 187 182 185 186 182 187 195 195 195 191 191 193 188 177 150 161 154 164 117 189 192 197 193 191 175 172 175 174 174 163 162 158
313 308 307 305 306 314 316 309 305 298 299 302 310 327 328 321 314 310 306 303 300 287 265 249 243 225 217 208 204 198 190 190 190 191 191 192 193 196 200 197 195 195 192 168 180 149 162 160 175 185 189 189 187 186 173 171 174 173 167 158 161 162
297 300 303 301 300 312 311 304 300 298 301 310 325 328 321 311 305 303 301 297 296 288 266 247 236 227 218 210 203 202 200 197 196 198 199 194 194 190 198 196 199 200 193 163 157 155 148 171 185 190 188 188 182 181 170 168 164 168 156 155 156 148
300 297 297 294 299 308 306 300 299 302 309 313 317 315 310 303 300 298 293 292 291 283 268 243 236 223 223 217 210 215 208 196 199 207 215 218 211 207 199 195 205 204 199 183 177 168 173 169 191 197 189 186 185 176 168 163 167 150 146 154 143 126
288 294 295 293 298 300 295 294 294 295 297 307 306 305 302 298 297 293 285 281 282 278 274 252 242 231 226 221 214 214 222 221 218 215 214 215 207 219 223 217 213 198 185 186 197 189 186 192 194 176 183 186 182 180 171 164 159 154 148 149 147 140
291 292 289 290 296 292 292 293 289 288 293 303 299 298 292 289 289 287 284 281 277 275 274 263 247 235 226 223 221 213 214 215 219 223 224 223 212 211 219 219 216 198 195 188 184 194 205 189 178 182 184 183 181 175 169 160 147 147 152 151 137 135
294 290 287 291 292 292 292 290 287 287 300 305 291 286 284 283 284 283 283 279 274 274 271 264 255 240 227 226 218 213 211 210 212 221 224 223 221 219 217 218 216 212 203 197 188 174 185 186 184 182 183 181 179 177 169 158 154 157 158 159 147 134
289 287 287 288 289 289 287 286 283 289 301 295 288 283 279 277 275 275 275 274 271 269 264 261 254 242 229 224 214 212 208 208 206 209 209 218 222 220 218 216 214 208 204 200 196 186 178 178 180 181 181 181 179 175 170 166 163 164 163 154 149 152
284 283 283 284 285 283 285 283 282 291 295 287 281 276 267 269 273 278 279 279 275 273 272 266 254 245 236 223 219 214 210 210 207 206 199 189 189 213 218 216 213 209 204 200 195 190 182 181 180 180 178 178 177 172 170 165 166 168 169 154 153 155
283 281 281 284 285 285 283 281 284 291 282 273 269 276 293 300 295 290 284 281 277 272 267 264 257 248 235 228 219 216 211 211 207 199 197 192 195 194 196 194 206 210 203 197 194 188 184 180 179 179 177 176 174 171 165 161 162 170 157 128 136 151
282 281 283 283 279 276 277 275 282 281 271 280 304 304 293 286 280 276 268 267 269 268 264 258 257 242 234 227 223 214 212 207 200 198 199 198 195 195 192 194 194 192 201 195 190 188 184 181 179 178 175 173 172 169 167 164 168 148 146 150 152 149